Location: Castle
(40.7167°S, 175.9500°E)
Time: 03:35:00
(UTC+00:00)

Timation 2 Rocket - Pass Details

Date: 04 August 2024
Orbit: 906 x 1073 km, 70.0° (Epoch: 07 September)

Event Time Altitude Azimuth Distance (km) Brightness Sun altitude
Exits shadow 16:55:12 - 347° (NNW) 3,219 6.6 -27.3°
Reaches altitude 10° 16:56:20 10° 348° (NNW) 2,812 6.3 -27.1°
Maximum altitude 17:02:54 69° 69° (ENE) 1,127 4.4 -25.9°
Drops below altitude 10° 17:09:45 10° 150° (SSE) 2,928 6.8 -24.6°
Sets 17:12:27 0° 152° (SSE) 3,896 7.5 -24.1°
